Regional Weather Roundup
Issued by NWS Raleigh/Durham, NC

Current Version | Previous Version | Text Only | Print | Product List | Glossary On
Versions: 1 2 3 4 5 6 7 8 9 10 11 12 13 14 15 16 17 18 19 20 21 22 23 24 25 26 27 28 29 30 31 32 33 34 35 36 37 38 39 40 41 42 43 44 45 46 47 48 49 50
000 ASUS42 KRAH 210410 RWRRAH NORTH CAROLINA WEATHER ROUNDUP NATIONAL WEATHER SERVICE RALEIGH NC 1200 AM EDT THU AUG 21 2014 NOTE: "FAIR" INDICATES FEW OR NO CLOUDS BELOW 12,000 FEET WITH NO SIGNIFICANT WEATHER AND/OR OBSTRUCTIONS TO VISIBILITY. NCZ001-053-055-056-065-067-210500- WESTERN NORTH CAROLINA CITY SKY/WX TMP DP RH WIND PRES REMARKS ASHEVILLE CLOUDY 69 62 78 NW9 30.16F JEFFERSON CLOUDY 67 56 68 CALM 30.14F MORGANTON CLOUDY 76 64 66 CALM 30.09F HICKORY CLOUDY 77 63 61 W3 30.06F RUTHERFORDTON CLOUDY 73 69 87 CALM 30.07F MOUNT AIRY PTCLDY 73 70 90 CALM 30.07S BOONE CLOUDY 66 60 80 CALM 30.16F $$ NCZ021-022-025-041-071-084-088-210500- CENTRAL NORTH CAROLINA CITY SKY/WX TMP DP RH WIND PRES REMARKS CHARLOTTE CLOUDY 78 70 76 NW3 30.06S GREENSBORO PTCLDY 77 71 82 W6 30.04S WINSTON-SALEM PTCLDY 78 69 73 CALM 30.05F RALEIGH-DURHAM MOCLDY 73 69 87 CALM 30.03S FORT BRAGG CLEAR 78 75 90 E1 30.02S FAYETTEVILLE CLEAR 78 75 90 S5 30.02S BURLINGTON PTCLDY 78 72 81 SW3 30.03S LAURINBURG PTCLDY 76 73 91 CALM 30.03S $$ NCZ011-015-027-028-043-044-047-080-103-210500- NORTHEASTERN NORTH CAROLINA CITY SKY/WX TMP DP RH WIND PRES REMARKS ROCKY MT-WILSO CLEAR 74 72 93 CALM 30.02S FOG GREENVILLE CLEAR 77 75 94 CALM 30.04S FOG WASHINGTON CLEAR 75 74 95 CALM 30.03S ELIZABETH CITY PTCLDY 75 71 87 S5 30.03F MANTEO CLEAR 72 72 100 CALM 30.05R CAPE HATTERAS PTCLDY 74 73 97 CALM 30.04R $$ NCZ078-087-090-091-093-098-101-210500- SOUTHEASTERN NORTH CAROLINA CITY SKY/WX TMP DP RH WIND PRES REMARKS LUMBERTON CLEAR 77 75 93 SE3 30.02S GOLDSBORO CLEAR 77 76 98 S3 30.01F KINSTON CLEAR 75 74 96 CALM 30.03F KENANSVILLE CLEAR 73 71 96 CALM 30.04S NEW BERN CLEAR 77 73 87 CALM 30.04F CHERRY POINT CLEAR 76 74 93 SE5 30.04S BEAUFORT CLEAR 80 76 87 CALM 30.03S JACKSONVILLE CLEAR 75 74 96 CALM 30.03F FOG WILMINGTON CLEAR 76 74 93 CALM 30.03S $$

USA.gov is the U.S. government's official web portal to all federal, state and local government web resources and services.